Regional Weather Roundup
Issued by NWS Bismarck, ND

Home | Current Version | Previous Version | Text Only | Print | Product List | Glossary On
Versions: 1 2 3 4 5 6 7 8 9 10 11 12 13 14 15 16 17 18 19 20 21 22 23 24 25 26 27 28 29 30 31 32 33 34 35 36 37 38 39 40 41 42 43 44 45 46 47 48 49 50
000
ASUS43 KBIS 241710
RWRBIS

NWR BROADCAST TEXT
NATIONAL WEATHER SERVICE BISMARCK ND
1200 PM CDT SUN JUL 24 2016

NOTE: "FAIR" INDICATES FEW OR NO CLOUDS BELOW 12,000 FEET WITH NO
SIGNIFICANT WEATHER AND/OR OBSTRUCTIONS TO VISIBILITY.


CITY           SKY/WX    TMP DP  RH WIND       PRES   REMARKS
WILLISTON      SUNNY     78  53  41 W12       30.06S
MINOT          SUNNY     79  55  43 W20       30.00R
MINOT AFB      SUNNY     74  58  56 NW21      29.98R
BISMARCK       SUNNY     78  57  48 W12       30.05S
DICKINSON      SUNNY     75  52  44 W8        30.08S
GARRISON         N/A     75  56  51 W13       30.04R
HETTINGER ARPT SUNNY     80  48  32 W7        30.12S
JAMESTOWN      SUNNY     76  56  49 NW17G25   29.98R
CARRINGTON     FAIR      73  59  60 NW18      30.00R
HAZEN          FAIR      75  54  46 NW14      30.07S
LINTON         FAIR      75  64  69 NW12G18   30.07S
MANDAN         FAIR      75  57  53 W14G20    30.06S
OAKES            N/A    N/A N/A N/A MISG        N/A
STANLEY        FAIR      73  57  56 W13G20    30.07R
$$

CITY           SKY/WX    TMP DP  RH WIND       PRES   REMARKS
GRAND FORKS    MOSUNNY   77  64  64 W15G22    29.87R
GRAND FORKS AF SUNNY     77  63  63 W14       29.88R
DEVILS LAKE    SUNNY     73  61  65 W18G24    29.94S
FARGO          SUNNY     79  63  57 W16       29.91S
CAVALIER       FAIR      75  63  64 W13G20    29.85R
GRAFTON        FAIR      75  63  64 W15G24    29.88R
GWINNER        FAIR      79  59  50 W18       29.98R
LANGDON        FAIR      73  61  64 W17G25    29.91R
ROLLA            N/A     72  57  60 NW18G24   29.94R
$$

CITY           SKY/WX    TMP DP  RH WIND       PRES   REMARKS
ABERDEEN       CLOUDY    78  60  53 N13       29.98F
MOBRIDGE       CLOUDY    79  57  46 NW12      30.04R
BUFFALO          N/A     79  45  29 VRB3      30.07F
RAPID CITY     CLOUDY    76  52  43 S7        30.16S
GLASGOW        SUNNY     77  55  46 S7        30.04F
SIDNEY         SUNNY     79  52  38 VRB7      30.06F
WOLF POINT     MOSUNNY   80  53  39 W6        30.05F
GLENDIVE       SUNNY     80  52  37 S8        30.09F
MILES CITY     SUNNY     82  46  28 S8        30.08F
BAKER          SUNNY     79  46  31 VRB5      30.13S
$$

CITY           SKY/WX    TMP DP  RH WIND       PRES   REMARKS
BILLINGS       SUNNY     75  47  36 S8        30.12F
GREAT FALLS    SUNNY     73  38  27 W6        30.12F
REGINA         MOSUNNY   70  55  60 W14G22    30.00F
ESTEVAN        MOSUNNY   73  55  53 NW18      30.02R
$$




USA.gov is the U.S. government's official web portal to all federal, state and local government web resources and services.